When you browse on this site, cookies collect data to enhance your experience and personalize the content and advertising you see.
Visit our Privacy Policy to learn more. By continuing to use the site, you agree to this use of cookies and data.
  • en Suisse
  • Liste des pays
  • À 7 jours
  • Température de l'eau
  • Carte satellitaire
  • Carte météo
  • Widgets météo
  • user-avatar
    Se connecter

    Météo par heure à Krasnokole

    Ce jour, 24 Juin, Lundi

    Heure Température Précipitation Vent Pression Humidité
    00:00 +16°C° 0.2 mm 3 m/s 745 mmHg 92%
    01:00 +16°C° 0.2 mm 3 m/s 745 mmHg 91%
    02:00 +16°C° 0 mm 3 m/s 745 mmHg 91%
    03:00 +14°C° 0.3 mm 3 m/s 745 mmHg 91%
    04:00 +14°C° 0.3 mm 4 m/s 745 mmHg 91%
    05:00 +14°C° 0.3 mm 4 m/s 745 mmHg 91%
    06:00 +15°C° 0 mm 4 m/s 746 mmHg 86%
    07:00 +17°C° 0 mm 4 m/s 746 mmHg 81%
    08:00 +19°C° 0 mm 4 m/s 747 mmHg 76%
    09:00 +20°C° 0 mm 4 m/s 746 mmHg 72%
    10:00 +21°C° 0 mm 4 m/s 746 mmHg 68%
    11:00 +22°C° 0 mm 4 m/s 746 mmHg 64%
    12:00 +23°C° 0 mm 4 m/s 746 mmHg 63%
    13:00 +23°C° 0 mm 4 m/s 747 mmHg 63%
    14:00 +25°C° 0 mm 4 m/s 747 mmHg 62%
    15:00 +24°C° 0 mm 3 m/s 747 mmHg 63%
    16:00 +24°C° 0 mm 3 m/s 747 mmHg 64%
    17:00 +24°C° 0 mm 3 m/s 747 mmHg 65%
    18:00 +21°C° 0 mm 2 m/s 747 mmHg 68%
    19:00 +19°C° 0 mm 2 m/s 747 mmHg 71%
    20:00 +18°C° 0 mm 2 m/s 748 mmHg 74%
    21:00 +17°C° 0 mm 2 m/s 748 mmHg 75%
    22:00 +16°C° 0 mm 3 m/s 748 mmHg 77%
    23:00 +14°C° 0 mm 3 m/s 748 mmHg 78%

    Demain, 25 Juin, Mardi

    Heure Température Précipitation Vent Pression Humidité
    00:00 +14°C° 0 mm 3 m/s 748 mmHg 79%
    01:00 +14°C° 0 mm 2 m/s 749 mmHg 80%
    02:00 +14°C° 0 mm 2 m/s 749 mmHg 81%
    03:00 +14°C° 0 mm 2 m/s 749 mmHg 81%
    04:00 +14°C° 0 mm 2 m/s 749 mmHg 82%
    05:00 +14°C° 0 mm 2 m/s 749 mmHg 82%
    06:00 +16°C° 0 mm 3 m/s 750 mmHg 76%
    07:00 +18°C° 0 mm 3 m/s 750 mmHg 70%
    08:00 +19°C° 0 mm 3 m/s 751 mmHg 64%
    09:00 +20°C° 0 mm 3 m/s 751 mmHg 60%
    10:00 +21°C° 0 mm 3 m/s 751 mmHg 57%
    11:00 +22°C° 0 mm 3 m/s 751 mmHg 53%
    12:00 +22°C° 0 mm 3 m/s 751 mmHg 52%
    13:00 +22°C° 0 mm 3 m/s 751 mmHg 51%
    14:00 +22°C° 0 mm 3 m/s 751 mmHg 49%
    15:00 +22°C° 0 mm 3 m/s 751 mmHg 54%
    16:00 +23°C° 0 mm 2 m/s 750 mmHg 58%
    17:00 +21°C° 0 mm 2 m/s 750 mmHg 63%
    18:00 +20°C° 0 mm 2 m/s 750 mmHg 66%
    19:00 +18°C° 0 mm 2 m/s 750 mmHg 69%
    20:00 +16°C° 0 mm 1 m/s 751 mmHg 72%
    21:00 +15°C° 0 mm 1 m/s 750 mmHg 75%
    22:00 +14°C° 0 mm 1 m/s 750 mmHg 78%
    23:00 +13°C° 0 mm 1 m/s 750 mmHg 81%

    Après-demain, 26 Juin, Mercredi

    Heure Température Précipitation Vent Pression Humidité
    00:00 +13°C° 0 mm 1 m/s 750 mmHg 82%
    01:00 +13°C° 0 mm 1 m/s 750 mmHg 83%
    02:00 +12°C° 0 mm 1 m/s 751 mmHg 83%
    03:00 +13°C° 0 mm 1 m/s 750 mmHg 82%
    04:00 +14°C° 0 mm 1 m/s 750 mmHg 81%
    05:00 +15°C° 0 mm 1 m/s 750 mmHg 80%
    06:00 +16°C° 0 mm 1 m/s 750 mmHg 76%
    07:00 +18°C° 0 mm 1 m/s 750 mmHg 71%
    08:00 +20°C° 0 mm 1 m/s 750 mmHg 66%
    09:00 +20°C° 0 mm 2 m/s 749 mmHg 62%
    10:00 +21°C° 0 mm 2 m/s 749 mmHg 58%
    11:00 +23°C° 0 mm 2 m/s 748 mmHg 54%
    12:00 +22°C° 0 mm 3 m/s 748 mmHg 54%
    13:00 +24°C° 0 mm 3 m/s 748 mmHg 53%
    14:00 +24°C° 0 mm 3 m/s 747 mmHg 53%
    15:00 +24°C° 0.1 mm 3 m/s 747 mmHg 58%
    16:00 +22°C° 0.1 mm 3 m/s 746 mmHg 62%
    17:00 +22°C° 0.1 mm 3 m/s 746 mmHg 67%
    18:00 +19°C° 0 mm 3 m/s 745 mmHg 75%
    19:00 +17°C° 0 mm 2 m/s 745 mmHg 83%
    20:00 +15°C° 0 mm 2 m/s 744 mmHg 90%
    21:00 +15°C° 0 mm 1 m/s 744 mmHg 90%
    22:00 +15°C° 0 mm 1 m/s 744 mmHg 90%
    23:00 +15°C° 0 mm 1 m/s 743 mmHg 90%

    27 Juin, Jeudi

    Heure Température Précipitation Vent Pression Humidité
    00:00 +14°C° 0.1 mm 1 m/s 743 mmHg 90%
    01:00 +14°C° 0.1 mm 1 m/s 742 mmHg 90%
    02:00 +14°C° 0.1 mm 1 m/s 742 mmHg 90%
    03:00 +14°C° 0.2 mm 1 m/s 741 mmHg 92%
    04:00 +14°C° 0.2 mm 2 m/s 741 mmHg 93%
    05:00 +14°C° 0.2 mm 2 m/s 740 mmHg 94%
    06:00 +15°C° 0.4 mm 2 m/s 739 mmHg 95%
    07:00 +14°C° 0.4 mm 3 m/s 739 mmHg 95%
    08:00 +14°C° 0.4 mm 3 m/s 738 mmHg 95%
    09:00 +15°C° 0.6 mm 4 m/s 737 mmHg 94%
    10:00 +17°C° 0.6 mm 4 m/s 736 mmHg 93%
    11:00 +17°C° 0.6 mm 5 m/s 736 mmHg 92%
    12:00 +19°C° 1.2 mm 5 m/s 735 mmHg 90%
    13:00 +20°C° 1.2 mm 5 m/s 734 mmHg 89%
    14:00 +21°C° 1.2 mm 6 m/s 733 mmHg 87%
    15:00 +20°C° 1.6 mm 6 m/s 732 mmHg 88%
    16:00 +20°C° 1.6 mm 6 m/s 731 mmHg 88%
    17:00 +20°C° 1.6 mm 6 m/s 730 mmHg 89%
    18:00 +19°C° 1.5 mm 6 m/s 729 mmHg 90%
    19:00 +19°C° 1.5 mm 6 m/s 728 mmHg 91%
    20:00 +19°C° 1.5 mm 6 m/s 727 mmHg 92%
    21:00 +17°C° 1.4 mm 6 m/s 726 mmHg 93%
    22:00 +16°C° 1.4 mm 5 m/s 726 mmHg 94%
    23:00 +15°C° 1.4 mm 5 m/s 725 mmHg 95%

    28 Juin, Vendredi

    Heure Température Précipitation Vent Pression Humidité
    00:00 +15°C° 0 mm 5 m/s 725 mmHg 95%
    01:00 +14°C° 0 mm 5 m/s 725 mmHg 95%
    02:00 +14°C° 0 mm 6 m/s 725 mmHg 95%
    03:00 +14°C° 0 mm 6 m/s 724 mmHg 94%
    04:00 +13°C° 0 mm 6 m/s 724 mmHg 92%
    05:00 +13°C° 0 mm 6 m/s 724 mmHg 91%
    06:00 +13°C° 0 mm 6 m/s 724 mmHg 90%
    07:00 +13°C° 0 mm 6 m/s 723 mmHg 90%
    08:00 +13°C° 0 mm 6 m/s 723 mmHg 89%
    09:00 +12°C° 0.6 mm 7 m/s 723 mmHg 91%
    10:00 +11°C° 0.6 mm 7 m/s 723 mmHg 93%
    11:00 +11°C° 0.6 mm 7 m/s 723 mmHg 94%
    12:00 +11°C° 2 mm 7 m/s 722 mmHg 95%
    13:00 +11°C° 2 mm 7 m/s 722 mmHg 95%
    14:00 +11°C° 2 mm 7 m/s 722 mmHg 95%
    15:00 +10°C° 1.7 mm 8 m/s 722 mmHg 95%
    16:00 +10°C° 1.7 mm 8 m/s 722 mmHg 95%
    17:00 +10°C° 1.7 mm 9 m/s 722 mmHg 95%
    18:00 +10°C° 0.7 mm 8 m/s 722 mmHg 95%
    19:00 +10°C° 0.7 mm 8 m/s 722 mmHg 95%
    20:00 +10°C° 0.7 mm 8 m/s 722 mmHg 95%
    21:00 +10°C° 0.4 mm 8 m/s 722 mmHg 95%
    22:00 +10°C° 0.4 mm 8 m/s 722 mmHg 95%
    23:00 +10°C° 0.4 mm 8 m/s 722 mmHg 95%

    29 Juin, Samedi

    Heure Température Précipitation Vent Pression Humidité
    00:00 +10°C° 0.3 mm 8 m/s 722 mmHg 94%
    01:00 +10°C° 0.3 mm 7 m/s 722 mmHg 94%
    02:00 +9°C° 0.3 mm 7 m/s 722 mmHg 94%
    03:00 +9°C° 0.5 mm 7 m/s 722 mmHg 95%
    04:00 +9°C° 0.5 mm 7 m/s 722 mmHg 95%
    05:00 +9°C° 0.5 mm 7 m/s 722 mmHg 95%
    06:00 +9°C° 0.5 mm 7 m/s 722 mmHg 95%
    07:00 +9°C° 0.5 mm 7 m/s 722 mmHg 95%
    08:00 +9°C° 0.5 mm 7 m/s 722 mmHg 95%
    09:00 +9°C° 0.8 mm 7 m/s 722 mmHg 95%
    10:00 +9°C° 0.8 mm 6 m/s 722 mmHg 95%
    11:00 +9°C° 0.8 mm 6 m/s 723 mmHg 95%
    12:00 +9°C° 0.9 mm 6 m/s 723 mmHg 96%
    13:00 +9°C° 0.9 mm 6 m/s 723 mmHg 96%
    14:00 +9°C° 0.9 mm 6 m/s 723 mmHg 96%
    15:00 +9°C° 0.6 mm 6 m/s 723 mmHg 96%
    16:00 +9°C° 0.6 mm 5 m/s 724 mmHg 96%
    17:00 +9°C° 0.6 mm 5 m/s 724 mmHg 96%
    18:00 +9°C° 0.5 mm 5 m/s 724 mmHg 96%
    19:00 +9°C° 0.5 mm 5 m/s 724 mmHg 97%
    20:00 +10°C° 0.5 mm 4 m/s 724 mmHg 97%
    21:00 +10°C° 0.5 mm 4 m/s 724 mmHg 97%
    22:00 +10°C° 0.5 mm 4 m/s 724 mmHg 97%
    23:00 +11°C° 0.5 mm 3 m/s 724 mmHg 98%
    Voir plus